Regional Weather Roundup
Issued by NWS Little Rock, AR

Home | Current Version | Previous Version | Text Only | Print | Product List | Glossary On
Versions: 1 2 3 4 5 6 7 8 9 10 11 12 13 14 15 16 17 18 19 20 21 22 23 24 25 26 27 28 29 30 31 32 33 34 35 36 37 38 39 40 41 42 43 44 45 46 47 48 49 50
000
ASUS44 KLZK 231005
RWRLZK

WEATHER ROUNDUP FOR ARKANSAS
NATIONAL WEATHER SERVICE LITTLE ROCK AR
500 AM CDT SAT SEP 23 2017

NOTE: "FAIR" INDICATES FEW OR NO CLOUDS BELOW 12,000 FEET WITH NO
SIGNIFICANT WEATHER AND/OR OBSTRUCTIONS TO VISIBILITY.

ARZ001-003-010-029-231100-
NORTHWEST ARKANSAS

CITY           SKY/WX    TMP DP  RH WIND       PRES   REMARKS
FAYETTEVILLE   FOG       62  62 100 CALM      30.01S VSB 3/4
FORT SMITH     CLEAR     71  69  93 NE3       29.96S
HARRISON       CLEAR     67  65  93 SE3       30.03S
BENTONVILLE    CLEAR     70  66  87 E3        30.03R
ROGERS         CLEAR     70  66  87 SE6       30.02R
SILOAM SPGS    CLEAR     68  66  93 E5          N/A
HIGHFILL       CLEAR     66  65  96 CALM      30.02
$$

ARZ004-005-016-231100-
NORTH CENTRAL ARKANSAS

CITY           SKY/WX    TMP DP  RH WIND       PRES   REMARKS
BATESVILLE     CLEAR    N/A N/A N/A NW3       30.00S
FLIPPIN        CLEAR     67  65  93 CALM      30.01S
MTN HOME       CLEAR     67  67 100 CALM      30.01R
$$

ARZ040-041-231100-
WEST CENTRAL ARKANSAS

CITY           SKY/WX    TMP DP  RH WIND       PRES   REMARKS
MENA           CLEAR     64  64 100 CALM      30.00S
MOUNT IDA      CLEAR     66  63  90 CALM      29.97R FOG
$$

ARZ009-017-025-026-028-231100-
NORTHEAST ARKANSAS

CITY           SKY/WX    TMP DP  RH WIND       PRES   REMARKS
JONESBORO      CLEAR     70  69  97 NE3       29.99R
NEWPORT        CLEAR     67  66  97 NE3       29.99
BLYTHEVILLE    CLEAR     69  68  96 CALM      30.00R
$$

ARZ022-023-033-042-044-231100-
CENTRAL ARKANSAS

CITY           SKY/WX    TMP DP  RH WIND       PRES   REMARKS
LITTLE ROCK    CLEAR     71  71 100 NE3       29.97S
N LITTLE ROCK    N/A     73  69  87 CALM      29.98R
JACKSONVILLE   CLEAR     69  69  99 CALM      29.97S
CONWAY           N/A     66  66 100 CALM      29.96S
SEARCY         CLEAR     68  68 100 CALM      29.99S
HOT SPRINGS    CLEAR     69  68  96 CALM      29.98S
RUSSELLVILLE   CLEAR     68  67  96 CALM      29.97S
CLINTON        FAIR      64  64 100 CALM      30.01R FOG
$$

ARZ036-231100-
EAST ARKANSAS

CITY           SKY/WX    TMP DP  RH WIND       PRES   REMARKS
WEST MEMPHIS   CLEAR     70  70 100 CALM      29.97R
$$

ARZ050-053-066-070-073-231100-
SOUTHWEST ARKANSAS

CITY           SKY/WX    TMP DP  RH WIND       PRES   REMARKS
ARKADELPHIA    FAIR      65  65 100 CALM      29.97S FOG
CAMDEN         PTCLDY    68  64  88 CALM      29.95S FOG
TEXARKANA      CLEAR     71  68  90 E3        29.95S
EL DORADO      CLEAR     69  68  96 CALM      29.96R
DE QUEEN       PTCLDY    65  65 100 CALM      29.95R FOG
$$

ARZ056-057-069-231100-
SOUTHEAST ARKANSAS

CITY           SKY/WX    TMP DP  RH WIND       PRES   REMARKS
PINE BLUFF     CLEAR     70  69  97 CALM      29.97R
STUTTGART      CLEAR     70  69  97 N3        29.98R
MONTICELLO     CLEAR     71  68  90 CALM      29.96R

$$





USA.gov is the U.S. government's official web portal to all federal, state and local government web resources and services.